This demonstration page uses our WeatherBlox Daily Observations layout. Learn more.

Left ArrowRight Arrow

47.50024, -111.30081

Hourly Observations for January 31, 2020

Temp ( °F °C ) Dew Point ( °F °C ) Humidity (%) Winds ( mph kmh ) Pressure ( in mb ) Visibility ( mi km ) Precip ( " mm )
12:53 am 00:53 Clear 42 5.6 4 -15.6 20 20 SW 29 46 29.97 1015 10 16 0.00 0.00
1:53 am 01:53 Mostly Clear 44 6.7 1 -17.2 16 16 SW 35 56 29.93 1014 10 16 0.00 0.00
2:53 am 02:53 Clear 44 6.7 1 -17.2 16 16 SW 32 52 29.91 1013 10 16 0.00 0.00
3:53 am 03:53 Clear 43 6.1 7 -13.9 22 22 SW 31 50 29.93 1013 10 16 0.00 0.00
4:53 am 04:53 Clear 43 6.1 12 -11.1 28 28 SW 31 50 29.96 1015 10 16 0.00 0.00
5:53 am 05:53 Clear 42 5.6 16 -8.9 35 35 SW 24 39 30.00 1016 10 16 0.00 0.00
6:53 am 06:53 Clear 42 5.6 21 -6.1 43 43 SW 29 46 30.00 1016 10 16 0.00 0.00
7:53 am 07:53 Clear 42 5.6 22 -5.6 45 45 SW 26 43 30.04 1017 10 16 0.00 0.00
8:53 am 08:53 Sunny 43 6.1 23 -5 45 45 SW 25 41 30.05 1018 10 16 0.00 0.00
9:53 am 09:53 Sunny 45 7.2 24 -4.4 44 44 SW 26 43 30.07 1018 10 16 0.00 0.00
10:53 am 10:53 Sunny 45 7.2 25 -3.9 46 46 SW 28 44 30.08 1019 10 16 0.00 0.00
11:53 am 11:53 Cloudy 47 8.3 27 -2.8 46 46 SW 29 46 30.07 1018 10 16 0.00 0.00
12:53 pm 12:53 Mostly Sunny 48 8.9 28 -2.2 46 46 SW 32 52 30.02 1017 10 16 0.00 0.00
1:53 pm 13:53 Sunny 49 9.4 27 -2.8 43 43 SW 28 44 29.99 1016 10 16 0.00 0.00
2:53 pm 14:53 Sunny 50 10 28 -2.2 43 43 SW 28 44 29.95 1014 10 16 0.00 0.00
3:53 pm 15:53 Sunny 50 10 30 -1.1 46 46 SW 31 50 29.94 1014 10 16 0.00 0.00
4:53 pm 16:53 Sunny 50 10 30 -1.1 46 46 SW 29 46 29.94 1014 10 16 0.00 0.00
5:53 pm 17:53 Clear 49 9.4 31 -0.6 50 50 SW 33 54 29.91 1013 10 16 0.00 0.00
6:53 pm 18:53 Clear 49 9.4 32 0 52 52 SW 29 46 29.92 1013 10 16 0.00 0.00
7:53 pm 19:53 Clear 50 10 33 0.6 52 52 SW 28 44 29.90 1012 10 16 0.00 0.00
8:53 pm 20:53 Clear 50 10 34 1.1 54 54 SW 36 57 29.88 1012 10 16 0.00 0.00
9:53 pm 21:53 Clear 50 10 33 0.6 52 52 SW 37 59 29.83 1010 10 16 0.00 0.00
10:53 pm 22:53 Clear 51 10.6 32 0 48 48 SSW 35 56 29.84 1011 10 16 0.00 0.00
11:53 pm 23:53 Clear 51 10.6 31 -0.6 46 46 SW 28 44 29.84 1011 10 16 0.00 0.00

Powered by AerisWeather